KC5AYO Weather Reports


Display with metric or nautical units.
time (UTC)temp
F
wind
direction
speed
MPH
gust
MPH
rain 1hr
in
rain 24hr
in
rain mn
in
humidity
%
barometer
mb
20260906012520 83 360 0.0 2.0 0.00 0.00 0.00 80 1010.3
20260906012022 83 66 0.0 0.0 0.00 0.00 0.00 81 1010.2
20260906011518 83 49 0.0 0.0 0.00 0.00 0.00 81 1010.0
20260906011017 84 342 0.0 0.0 0.00 0.00 0.00 81 1009.9
20260906010517 84 342 0.0 0.0 0.00 0.00 0.00 80 1009.7
20260906010017 84 342 0.0 0.0 0.00 0.00 0.00 80 1009.5
20260906005517 84 342 0.0 0.0 0.00 0.00 0.00 79 1009.6
20260906005017 84 342 0.0 0.0 0.00 0.00 0.00 80 1009.4
20260906004517 84 342 0.0 0.0 0.00 0.00 0.00 79 1009.4
20260906004017 85 342 0.0 0.0 0.00 0.00 0.00 78 1009.4
20260906003517 85 342 0.0 0.0 0.00 0.00 0.00 78 1009.4
20260906003017 85 342 0.0 0.0 0.00 0.00 0.00 79 1009.3
20260906002516 85 342 0.0 0.0 0.00 0.00 0.00 77 1009.3
20260906002016 85 342 0.0 0.0 0.00 0.00 0.00 78 1009.3
20260906001517 85 342 0.0 0.0 0.00 0.00 0.00 78 1009.3
20260906001020 85 342 0.0 0.0 0.00 0.00 0.00 77 1009.3
20260906000515 86 342 0.0 0.0 0.00 0.00 0.00 78 1009.2
20260906000016 86 342 0.0 0.0 0.00 0.00 0.00 77 1009.3
20260905235515 86 342 0.0 0.0 0.00 0.00 0.00 78 1009.3
20260905235019 87 342 0.0 0.0 0.00 0.00 0.00 74 1009.3
20260905234515 87 342 0.0 0.0 0.00 0.00 0.00 74 1009.2
20260905234015 87 342 0.0 0.0 0.00 0.00 0.00 74 1009.4
20260905233515 88 342 0.0 0.0 0.00 0.00 0.00 72 1009.4
20260905233017 88 342 0.0 0.0 0.00 0.00 0.00 71 1009.5
20260905232514 88 344 0.0 0.0 0.00 0.00 0.00 72 1009.5
20260905232015 88 344 0.0 0.0 0.00 0.00 0.00 72 1009.8
20260905231517 89 344 0.0 0.0 0.00 0.00 0.00 72 1009.8
20260905231014 89 340 0.0 0.0 0.00 0.00 0.00 68 1009.8
20260905230513 89 340 0.0 0.0 0.00 0.00 0.00 68 1009.8
20260905230013 89 344 0.0 0.0 0.00 0.00 0.00 67 1009.5
20260905225514 88 344 0.0 0.0 0.00 0.00 0.00 67 1009.4
20260905225013 88 345 0.0 0.0 0.00 0.00 0.00 67 1009.4
20260905224514 89 345 0.0 0.0 0.00 0.00 0.00 67 1009.4
20260905224018 89 345 0.0 0.0 0.00 0.00 0.00 67 1009.4
20260905223512 89 345 0.0 0.0 0.00 0.00 0.00 65 1009.1
20260905223013 89 345 0.0 0.0 0.00 0.00 0.00 66 1009.0
20260905222513 89 345 0.0 0.0 0.00 0.00 0.00 66 1009.1
20260905222012 89 345 0.0 0.0 0.00 0.00 0.00 66 1009.2
20260905221512 89 345 0.0 0.0 0.00 0.00 0.00 67 1009.2
20260905221011 89 345 0.0 0.0 0.00 0.00 0.00 66 1009.0
20260905220513 89 344 0.0 0.0 0.00 0.00 0.00 65 1009.2
20260905220013 89 344 0.0 0.0 0.00 0.00 0.00 63 1009.1
20260905215511 90 321 0.0 0.0 0.00 0.00 0.00 63 1009.2
20260905215009 90 321 0.0 0.0 0.00 0.00 0.00 64 1009.4
20260905214509 90 16 0.0 0.0 0.00 0.00 0.00 61 1009.4
20260905214009 91 9 0.0 0.0 0.00 0.00 0.00 61 1009.3
20260905213509 91 350 0.0 1.0 0.00 0.00 0.00 61 1009.3
20260905213010 90 350 0.0 2.0 0.00 0.00 0.00 60 1009.4
20260905212511 91 21 0.0 2.0 0.00 0.00 0.00 60 1009.3
20260905212008 91 315 0.0 2.0 0.00 0.00 0.00 59 1009.3
20260905211508 91 338 0.0 2.0 0.00 0.00 0.00 57 1009.3
20260905211010 91 311 0.0 2.0 0.00 0.00 0.00 58 1009.3
20260905210507 91 348 0.0 2.0 0.00 0.00 0.00 58 1009.3
20260905210006 91 303 0.0 4.0 0.00 0.00 0.00 58 1009.6
20260905205505 91 344 0.0 4.0 0.00 0.00 0.00 58 1009.6
20260905205005 91 360 0.0 2.0 0.00 0.00 0.00 57 1009.7
20260905204504 91 298 0.0 3.0 0.00 0.00 0.00 57 1009.9
20260905204003 91 319 0.0 3.0 0.00 0.00 0.00 58 1009.8
20260905203503 92 14 0.0 2.0 0.00 0.00 0.00 57 1010.0
20260905203003 92 288 0.0 2.0 0.00 0.00 0.00 58 1010.0
20260905202602 92 269 0.0 0.0 0.00 0.00 0.00 58 1010.0
20260905202003 92 310 0.0 2.0 0.00 0.00 0.00 57 1010.1
20260905201502 92 162 0.0 2.0 0.00 0.00 0.00 55 1010.1
20260905201003 92 336 0.0 2.0 0.00 0.00 0.00 56 1010.3
20260905200501 92 275 0.0 3.0 0.00 0.00 0.00 57 1010.2
20260905200001 92 355 0.0 3.0 0.00 0.00 0.00 55 1010.3
20260905195601 92 297 0.0 3.0 0.00 0.00 0.00 56 1010.3
20260905195100 93 322 0.0 3.0 0.00 0.00 0.00 56 1010.4
20260905194600 92 331 0.0 3.0 0.00 0.00 0.00 54 1010.4
20260905194103 92 301 0.0 2.0 0.00 0.00 0.00 54 1010.4
20260905193559 92 308 0.0 2.0 0.00 0.00 0.00 56 1010.4
20260905193058 92 297 0.0 2.0 0.00 0.00 0.00 55 1010.4
20260905192601 92 65 0.0 2.0 0.00 0.00 0.00 54 1010.4
20260905192058 92 311 0.0 2.0 0.00 0.00 0.00 54 1010.4
20260905191557 92 314 0.0 2.0 0.00 0.00 0.00 53 1010.5
20260905191058 93 319 0.0 2.0 0.00 0.00 0.00 53 1010.6
20260905190555 92 302 0.0 2.0 0.00 0.00 0.00 56 1010.7
20260905190059 92 298 0.0 2.0 0.00 0.00 0.00 55 1010.8
20260905185555 92 209 0.0 2.0 0.00 0.00 0.00 52 1010.8
20260905185059 92 254 0.0 2.0 0.00 0.00 0.00 51 1010.9
20260905184555 93 114 0.0 2.0 0.00 0.00 0.00 53 1011.0
20260905184057 92 290 0.0 2.0 0.00 0.00 0.00 52 1011.1
20260905183553 92 104 0.0 1.0 0.00 0.00 0.00 55 1011.3
20260905183052 92 299 0.0 0.0 0.00 0.00 0.00 57 1011.3
20260905182552 91 105 0.0 2.0 0.00 0.00 0.00 52 1011.4
20260905182054 92 199 0.0 2.0 0.00 0.00 0.00 51 1011.4
20260905181551 91 99 0.0 3.0 0.00 0.00 0.00 57 1011.3
20260905181050 91 277 0.0 3.0 0.00 0.00 0.00 55 1011.3
20260905180550 91 178 0.0 2.0 0.00 0.00 0.00 52 1011.4
20260905180109 91 229 0.0 2.0 0.00 0.00 0.00 54 1011.4
20260905175548 91 313 0.0 2.0 0.00 0.00 0.00 53 1011.4
20260905175046 90 291 0.0 0.0 0.00 0.00 0.00 55 1011.5
20260905174547 90 262 0.0 2.0 0.00 0.00 0.00 54 1011.7
20260905174046 90 221 0.0 2.0 0.00 0.00 0.00 55 1011.6
20260905173546 90 237 0.0 2.0 0.00 0.00 0.00 56 1011.6
20260905173108 90 117 0.0 2.0 0.00 0.00 0.00 55 1011.8
20260905172544 89 240 0.0 2.0 0.00 0.00 0.00 55 1011.8
20260905172043 89 150 0.0 2.0 0.00 0.00 0.00 55 1011.8
20260905171552 88 178 0.0 2.0 0.00 0.00 0.00 59 1012.0
20260905171040 88 284 0.0 3.0 0.00 0.00 0.00 57 1012.0
20260905170540 88 105 0.0 3.0 0.00 0.00 0.00 55 1012.2
20260905170040 89 160 0.0 3.0 0.00 0.00 0.00 58 1012.4
20260905165537 88 254 0.0 2.0 0.00 0.00 0.00 57 1012.4
20260905165036 87 179 0.0 2.0 0.00 0.00 0.00 58 1012.5
20260905164536 87 295 0.0 3.0 0.00 0.00 0.00 57 1012.5
20260905164036 87 104 0.0 3.0 0.00 0.00 0.00 57 1012.6
20260905163533 87 267 0.0 2.0 0.00 0.00 0.00 59 1012.6
20260905163032 87 264 0.0 2.0 0.00 0.00 0.00 57 1012.4
20260905162530 86 360 0.0 2.0 0.00 0.00 0.00 58 1012.3
20260905162030 85 311 0.0 2.0 0.00 0.00 0.00 63 1012.5
20260905161528 85 94 0.0 2.0 0.00 0.00 0.00 66 1012.4
20260905161028 84 112 0.0 3.0 0.00 0.00 0.00 65 1012.4
20260905160526 83 82 0.0 3.0 0.00 0.00 0.00 61 1012.5
20260905160044 83 269 0.0 2.0 0.00 0.00 0.00 63 1012.6
20260905155526 82 177 0.0 2.0 0.00 0.00 0.00 65 1012.7
20260905155021 82 138 0.0 2.0 0.00 0.00 0.00 66 1012.7
20260905154521 82 280 0.0 2.0 0.00 0.00 0.00 68 1012.8
20260905154023 81 250 0.0 2.0 0.00 0.00 0.00 68 1012.8
20260905153521 81 163 0.0 2.0 0.00 0.00 0.00 67 1012.7
20260905153022 81 149 0.0 2.0 0.00 0.00 0.00 66 1012.7
20260905152520 81 166 0.0 2.0 0.00 0.00 0.00 63 1012.8
20260905152023 81 120 0.0 2.0 0.00 0.00 0.00 65 1012.7
20260905151520 82 67 0.0 3.0 0.00 0.00 0.00 62 1012.8
20260905151020 82 105 0.0 3.0 0.00 0.00 0.00 61 1012.9
20260905150517 81 158 0.0 2.0 0.00 0.00 0.00 63 1012.8
20260905150017 81 192 0.0 2.0 0.00 0.00 0.00 63 1012.9
20260905145519 81 142 0.0 2.0 0.00 0.00 0.00 65 1012.9
20260905145014 81 203 0.0 5.0 0.00 0.00 0.00 66 1012.8
20260905144523 80 178 1.0 5.0 0.00 0.00 0.00 63 1012.8
20260905144018 80 126 0.0 3.0 0.00 0.00 0.00 64 1012.9
20260905143510 80 132 1.0 3.0 0.00 0.00 0.00 64 1013.0
20260905143010 80 129 0.0 3.0 0.00 0.00 0.00 70 1013.2
20260905142508 79 260 0.0 3.0 0.00 0.00 0.00 67 1013.2
20260905142007 79 109 0.0 3.0 0.00 0.00 0.00 67 1013.2
20260905141512 78 117 0.0 2.0 0.00 0.00 0.00 72 1013.2
20260905141005 78 148 0.0 2.0 0.00 0.00 0.00 69 1013.2
20260905140507 78 173 0.0 2.0 0.00 0.00 0.00 69 1013.3
20260905140014 77 150 0.0 2.0 0.00 0.00 0.00 69 1013.3
20260905135504 77 169 0.0 2.0 0.00 0.00 0.00 71 1013.4
20260905135005 77 175 0.0 2.0 0.00 0.00 0.00 70 1013.4
20260905134504 77 181 0.0 2.0 0.00 0.00 0.00 72 1013.4
20260905134003 77 156 0.0 2.0 0.00 0.00 0.00 74 1013.3
20260905133503 77 149 0.0 3.0 0.00 0.00 0.00 72 1013.3
20260905133007 77 132 0.0 3.0 0.00 0.00 0.00 73 1013.3
20260905132501 76 115 0.0 2.0 0.00 0.00 0.00 74 1013.5
20260905132001 76 153 0.0 2.0 0.00 0.00 0.00 73 1013.5
20260905131601 76 117 0.0 2.0 0.00 0.00 0.00 72 1013.5
20260905131059 76 105 0.0 2.0 0.00 0.00 0.00 74 1013.6
20260905130559 75 88 0.0 2.0 0.00 0.00 0.00 76 1013.6
20260905130059 75 107 0.0 2.0 0.00 0.00 0.00 77 1013.7
20260905125558 75 147 0.0 3.0 0.00 0.00 0.00 77 1013.5
20260905125057 75 115 0.0 3.0 0.00 0.00 0.00 78 1013.4
20260905124559 75 105 0.0 3.0 0.00 0.00 0.00 78 1013.4
20260905124056 74 128 0.0 2.0 0.00 0.00 0.00 81 1013.5
20260905123556 74 129 0.0 2.0 0.00 0.00 0.00 80 1013.7
20260905123103 74 117 0.0 2.0 0.00 0.00 0.00 81 1013.5
20260905122555 74 105 0.0 2.0 0.00 0.00 0.00 80 1013.5
20260905122056 75 110 0.0 3.0 0.00 0.00 0.00 81 1013.5
20260905121559 75 101 1.0 3.0 0.00 0.00 0.00 80 1013.6
20260905121053 75 96 0.0 3.0 0.00 0.00 0.00 81 1013.6
20260905120550 75 109 1.0 4.0 0.00 0.00 0.00 79 1013.4
20260905120100 75 102 2.0 4.0 0.00 0.00 0.00 79 1013.4
20260905115549 75 96 1.0 6.0 0.00 0.00 0.00 79 1013.5
20260905115051 75 107 1.0 6.0 0.00 0.00 0.00 79 1013.4
20260905114600 75 77 3.0 8.0 0.00 0.00 0.00 80 1013.4
20260905114046 76 144 2.0 8.0 0.00 0.00 0.00 83 1013.4
20260905113545 76 65 2.0 8.0 0.00 0.00 0.00 86 1013.2
20260905113054 76 80 3.0 8.0 0.00 0.00 0.00 90 1013.1
20260905112543 76 86 2.0 8.0 0.00 0.00 0.00 93 1012.9
20260905112042 76 91 2.0 4.0 0.00 0.00 0.00 93 1012.6
20260905111623 76 63 0.0 0.0 0.00 0.00 0.00 94 1012.2
20260905111041 76 9 0.0 0.0 0.00 0.00 0.00 93 1011.8
20260905110540 75 9 0.0 0.0 0.00 0.00 0.00 94 1011.7
20260905110039 75 9 0.0 0.0 0.00 0.00 0.00 93 1011.5
20260905105539 75 9 0.0 0.0 0.00 0.00 0.00 93 1011.4
20260905105038 76 9 0.0 0.0 0.00 0.00 0.00 93 1011.3
20260905104538 76 9 0.0 0.0 0.00 0.00 0.00 93 1011.3
20260905104038 76 9 0.0 0.0 0.00 0.00 0.00 92 1011.3
20260905103538 76 9 0.0 0.0 0.00 0.00 0.00 92 1011.3
20260905103039 76 9 0.0 0.0 0.00 0.00 0.00 92 1011.4
20260905102540 76 9 0.0 0.0 0.00 0.00 0.00 92 1011.5
20260905102038 76 5 0.0 0.0 0.00 0.00 0.00 92 1011.4
20260905101541 76 9 0.0 0.0 0.00 0.00 0.00 93 1011.5
20260905101036 76 9 0.0 0.0 0.00 0.00 0.00 93 1011.6
20260905100536 76 338 0.0 0.0 0.00 0.00 0.00 92 1011.5
20260905100036 76 338 0.0 0.0 0.00 0.00 0.00 91 1011.4
20260905095535 76 338 0.0 0.0 0.00 0.00 0.00 91 1011.3
20260905095035 76 338 0.0 0.0 0.00 0.00 0.00 91 1011.3
20260905094535 76 338 0.0 0.0 0.00 0.00 0.00 91 1011.3
20260905094036 76 338 0.0 0.0 0.00 0.00 0.00 91 1011.4
20260905093534 76 338 0.0 0.0 0.00 0.00 0.00 91 1011.4
20260905093039 76 338 0.0 0.0 0.00 0.00 0.00 91 1011.3
20260905092534 76 338 0.0 0.0 0.00 0.00 0.00 91 1011.3
20260905092033 77 338 0.0 0.0 0.00 0.00 0.00 91 1011.3
20260905091533 77 338 0.0 0.0 0.00 0.00 0.00 91 1011.3
20260905091032 77 338 0.0 0.0 0.00 0.00 0.00 91 1011.3
20260905090532 77 338 0.0 0.0 0.00 0.00 0.00 91 1011.3
20260905090032 77 338 0.0 0.0 0.00 0.00 0.00 91 1011.3
20260905085532 77 338 0.0 0.0 0.00 0.00 0.00 89 1011.1
20260905085032 77 338 0.0 0.0 0.00 0.00 0.00 90 1011.2
20260905084533 76 338 0.0 0.0 0.00 0.00 0.00 90 1011.1
20260905084031 76 338 0.0 0.0 0.00 0.00 0.00 90 1011.0
20260905083531 77 338 0.0 0.0 0.00 0.00 0.00 90 1010.9
20260905083031 77 338 0.0 0.0 0.00 0.00 0.00 90 1011.0
20260905082531 77 338 0.0 0.0 0.00 0.00 0.00 90 1011.0
20260905082031 77 338 0.0 0.0 0.00 0.00 0.00 90 1011.0
20260905081531 77 338 0.0 0.0 0.00 0.00 0.00 91 1011.0
20260905081033 77 338 0.0 0.0 0.00 0.00 0.00 91 1011.0
20260905080530 77 338 0.0 0.0 0.00 0.00 0.00 91 1010.9
20260905080033 77 338 0.0 0.0 0.00 0.00 0.00 91 1010.7
20260905075529 77 338 0.0 0.0 0.00 0.00 0.00 91 1010.8
20260905075029 77 338 0.0 0.0 0.00 0.00 0.00 92 1010.7
20260905074530 77 338 0.0 0.0 0.00 0.00 0.00 92 1010.6
20260905074029 77 338 0.0 0.0 0.00 0.00 0.00 93 1010.7
20260905073529 76 338 0.0 0.0 0.00 0.00 0.00 93 1010.7
20260905073035 76 338 0.0 0.0 0.00 0.00 0.00 93 1010.7
20260905072528 77 338 0.0 0.0 0.00 0.00 0.00 93 1010.8
20260905072027 76 338 0.0 0.0 0.00 0.00 0.00 93 1010.8
20260905071527 76 338 0.0 0.0 0.00 0.00 0.00 93 1010.9
20260905071025 77 338 0.0 0.0 0.00 0.00 0.00 93 1011.0
20260905070528 76 338 0.0 0.0 0.00 0.00 0.00 93 1011.1
20260905070043 77 338 0.0 0.0 0.00 0.00 0.00 93 1011.1
20260905065523 77 338 0.0 0.0 0.00 0.00 0.00 93 1011.1
20260905065023 77 338 0.0 0.0 0.00 0.00 0.00 93 1011.2
20260905064537 77 338 0.0 0.0 0.00 0.00 0.00 93 1011.4
20260905064022 77 338 0.0 0.0 0.00 0.00 0.00 93 1011.4
20260905063521 77 338 0.0 0.0 0.00 0.00 0.00 93 1011.4
20260905063021 77 338 0.0 0.0 0.00 0.00 0.00 92 1011.5
20260905062520 77 338 0.0 0.0 0.00 0.00 0.00 92 1011.5
20260905062020 77 338 0.0 0.0 0.00 0.00 0.00 92 1011.7
20260905061520 77 338 0.0 0.0 0.00 0.00 0.00 92 1011.6
20260905061018 77 338 0.0 0.0 0.00 0.00 0.00 92 1011.7
20260905060517 77 338 0.0 0.0 0.00 0.00 0.00 91 1011.8
20260905060021 78 338 0.0 0.0 0.00 0.00 0.00 91 1011.7
20260905055516 78 339 0.0 0.0 0.00 0.00 0.00 92 1011.7
20260905055022 78 69 0.0 0.0 0.00 0.00 0.00 92 1011.7
20260905054526 78 69 0.0 0.0 0.00 0.00 0.00 92 1011.8
20260905054018 78 69 0.0 0.0 0.00 0.00 0.00 92 1011.7
20260905053515 78 69 0.0 0.0 0.00 0.00 0.00 92 1011.8
20260905053017 78 69 0.0 0.0 0.00 0.00 0.00 92 1011.9
20260905052513 78 69 0.0 0.0 0.00 0.00 0.00 92 1012.0
20260905052013 78 69 0.0 0.0 0.00 0.00 0.00 92 1011.9
20260905051521 78 69 0.0 0.0 0.00 0.00 0.00 92 1012.0
20260905051011 78 69 0.0 0.0 0.00 0.00 0.00 92 1012.1
20260905050511 78 69 0.0 0.0 0.00 0.00 0.00 92 1012.1
20260905050010 78 69 0.0 0.0 0.00 0.00 0.00 92 1012.1
20260905045510 79 69 0.0 0.0 0.00 0.00 0.00 91 1012.2
20260905045010 79 69 0.0 0.0 0.00 0.00 0.00 91 1012.2
20260905044509 79 69 0.0 0.0 0.00 0.00 0.00 91 1012.3
20260905044008 79 69 0.0 0.0 0.00 0.00 0.00 91 1012.3
20260905043508 79 70 0.0 0.0 0.00 0.00 0.00 91 1012.2
20260905043009 79 69 0.0 0.0 0.00 0.00 0.00 90 1012.3
20260905042509 79 69 0.0 0.0 0.00 0.00 0.00 90 1012.4
20260905042008 79 69 0.0 0.0 0.00 0.00 0.00 91 1012.4
20260905041507 79 69 0.0 0.0 0.00 0.00 0.00 91 1012.3
20260905041005 79 69 0.0 0.0 0.00 0.00 0.00 89 1012.3
20260905040505 79 69 0.0 0.0 0.00 0.00 0.00 89 1012.2
20260905040011 79 69 0.0 0.0 0.00 0.00 0.00 89 1012.2
20260905035504 79 69 0.0 0.0 0.00 0.00 0.00 89 1012.2
20260905035004 79 69 0.0 0.0 0.00 0.00 0.00 89 1012.2
20260905034510 79 69 0.0 0.0 0.00 0.00 0.00 88 1012.2
20260905034007 80 69 0.0 0.0 0.00 0.00 0.00 88 1012.2
20260905033503 80 69 0.0 0.0 0.00 0.00 0.00 88 1012.2
20260905033005 80 69 0.0 0.0 0.00 0.00 0.00 88 1012.1
20260905032504 80 69 0.0 0.0 0.00 0.00 0.00 88 1012.2
20260905032003 80 69 0.0 0.0 0.00 0.00 0.00 87 1012.1
20260905031503 80 69 0.0 0.0 0.00 0.00 0.00 87 1012.2
20260905031002 80 69 0.0 0.0 0.00 0.00 0.00 86 1012.2
20260905030502 81 69 0.0 0.0 0.00 0.00 0.00 85 1012.2
20260905030003 81 69 0.0 0.0 0.00 0.00 0.00 83 1012.0
20260905025503 81 69 0.0 0.0 0.00 0.00 0.00 84 1012.0
20260905025003 81 69 0.0 0.0 0.00 0.00 0.00 84 1012.1
20260905024503 82 69 0.0 0.0 0.00 0.00 0.00 85 1012.2
20260905024002 82 69 0.0 0.0 0.00 0.00 0.00 86 1012.2
20260905023502 82 69 0.0 0.0 0.00 0.00 0.00 85 1012.2
20260905023004 82 69 0.0 0.0 0.00 0.00 0.00 86 1012.2
20260905022503 82 69 0.0 0.0 0.00 0.00 0.00 87 1012.2
20260905022001 82 69 0.0 0.0 0.00 0.00 0.00 89 1012.2
20260905021502 81 294 0.0 0.0 0.00 0.00 0.00 88 1012.2
20260905021002 81 294 0.0 0.0 0.00 0.00 0.00 88 1012.1
20260905020501 82 294 0.0 0.0 0.00 0.00 0.00 87 1012.1
20260905020106 82 294 0.0 0.0 0.00 0.00 0.00 87 1012.1
20260905015600 82 294 0.0 0.0 0.00 0.00 0.00 87 1012.0
20260905015101 82 294 0.0 0.0 0.00 0.00 0.00 87 1011.9
20260905014601 82 294 0.0 0.0 0.00 0.00 0.00 87 1012.0
20260905014100 82 294 0.0 0.0 0.00 0.00 0.00 86 1011.9
20260905013600 82 294 0.0 0.0 0.00 0.00 0.00 86 1011.8
20260905013100 83 294 0.0 0.0 0.00 0.00 0.00 86 1011.7